Location: Central Falls
(41.8900°N, 71.3929°W)
Time: 02:33:53
(UTC+00:00)

Tiros 1 - Pass Details

Date: 14 December 2023
Orbit: 625 x 658 km, 48.4° (Epoch: 01 March)

Event Time Altitude Azimuth Distance (km) Brightness Sun altitude
Rises 08:00:11 0° 279° (W) 2,970 - -44.6°
Reaches altitude 10° 08:02:39 10° 287° (WNW) 2,064 - -44.2°
Maximum altitude 08:07:06 38° 356° (N) 1,008 - -43.4°
Drops below altitude 10° 08:11:35 10° 65° (ENE) 2,074 - -42.5°
Exits shadow 08:12:00 - 66° (ENE) 2,226 10.5 -42.4°
Sets 08:14:05 0° 73° (ENE) 2,987 11.4 -42.1°
